GFSNIL_con_sbcape_132.txt.gz
CAPE
523 486 316 362 383 347 469 386 447 536 707 1028 1143 1324 1497 1257 1023 1066 1198 1477 1581 1098
610 713 635 660 706 481 706 828 638 701 1039 676 1221 1337 1395 1269 1026 1407 1451 1104 1205 1441
862 684 598 618 777 643 629 1027 895 889 1126 1186 743 1218 807 991 994 1355 1210 1074 878 1095
814 932 801 829 736 794 681 376 696 872 852 882 1026 929 699 725 912 718 725 968 843 1014
598 902 863 878 658 743 704 420 206 396 653 643 949 988 973 776 1182 922 580 607 798 841
749 782 878 910 713 718 763 738 749 785 914 849 918 845 940 815 760 798 876 1161 1099 959
743 860 1060 902 904 907 902 873 938 806 660 672 664 753 805 975 692 780 883 791 947 667
336 417 789 885 895 865 693 644 782 839 831 561 447 100 64 156 441 382 430 573 237 47
71 168 559 713 837 766 763 656 816 879 362 320 0 1 0 8 341 606 236 212 162 0
47 64 24 161 493 645 760 752 483 157 1 0 0 0 0 0 332 202 103 18 176 0
1 0 1 6 12 64 201 213 1 1 0 0 1 0 0 0 226 58 68 0 0 0
0 0 1 1 4 31 12 2 1 0 0 0 0 0 0 87 0 0 0 0 0 0
0 0 1 1 1 2 1 4 0 0 0 0 0 0 0 0 0 0 0 0 0 0
0 0 1 2 2 1 2 2 2 6 2 1 0 0 0 0 0 0 0 0 0 0

GFSNIL_con_sbcape_135.txt.gz
CAPE
107 150 105 138 169 111 152 103 135 169 565 752 765 792 1138 831 960 940 995 1255 1268 1057
349 409 264 195 132 141 177 309 252 144 540 389 687 899 1002 885 749 1098 1054 1053 1190 1240
336 469 489 297 440 538 427 541 916 555 506 575 516 1016 709 765 751 972 962 723 521 798
438 594 502 490 491 448 448 393 711 559 593 796 696 556 365 401 526 492 649 728 567 618
485 439 669 641 469 509 541 318 184 501 528 513 595 532 389 345 877 442 456 378 717 575
497 418 599 524 469 420 425 567 234 198 322 478 465 678 758 636 555 685 509 748 891 885
702 573 490 573 511 471 552 560 571 466 564 571 589 572 653 794 550 517 630 703 817 904
76 275 427 568 545 534 462 606 591 571 524 462 456 323 318 362 514 469 316 497 175 110
50 106 152 332 418 405 447 398 329 502 383 269 102 1 0 31 167 246 271 250 4 0
39 23 22 83 148 254 310 287 333 250 136 0 0 0 0 0 56 174 144 173 49 0
0 0 19 73 100 155 164 71 2 1 0 0 0 3 1 0 177 164 27 49 0 0
0 3 6 20 66 90 65 1 1 3 1 0 0 0 2 1 1 1 1 0 0 0
1 1 2 1 1 1 1 2 2 3 6 4 0 0 1 2 3 0 0 0 0 0
1 1 2 2 2 4 2 2 1 2 1 1 3 1 0 0 0 0 0 0 0 0

GFSNIL_con_sbcape_138.txt.gz
CAPE
91 73 130 145 69 276 125 89 195 288 629 907 899 903 1062 953 1149 1209 1281 1384 1383 1351
133 148 213 193 105 49 48 175 217 193 432 582 886 956 1002 991 1056 1262 1314 1192 1318 1409
224 241 345 272 291 305 209 291 749 664 309 629 626 976 1080 975 829 1115 1331 1108 925 1189
205 315 400 391 422 445 518 427 447 869 462 711 789 841 935 820 805 837 1044 1122 944 886
476 457 446 444 511 339 459 452 377 543 664 571 923 719 831 789 875 724 644 581 700 849
436 453 539 563 525 411 580 530 402 226 310 480 449 827 778 603 632 927 774 731 1030 1013
482 408 439 508 485 433 463 608 648 324 359 427 650 694 854 1083 891 720 856 883 873 1125
131 335 493 627 628 479 391 558 574 328 505 584 502 553 633 868 860 841 837 698 543 460
46 86 60 150 340 402 391 262 301 372 452 278 292 1 0 74 488 684 619 712 146 24
16 15 16 35 127 184 188 123 51 2 1 2 0 1 7 4 1 360 499 352 87 21
0 2 0 31 92 78 62 23 0 0 0 0 0 0 2 2 1 134 83 122 18 0
0 1 0 19 111 111 28 2 3 1 1 0 0 0 1 1 10 3 2 1 0 0
0 1 1 0 1 3 1 2 2 2 1 1 1 0 1 0 2 2 0 0 0 0
1 2 1 2 3 2 1 2 2 2 3 0 0 0 1 0 0 0 0 0 0 0

GFSNIL_con_sbcape_141.txt.gz
CAPE
1284 1093 1183 1406 1160 1128 1113 1144 1460 1868 1932 2030 2132 1940 2535 2425 2260 2675 2627 2891 2809 2373
1230 1155 1162 1432 1532 1431 1575 1212 1356 1307 1606 1803 1900 2164 2357 2172 2361 2580 2825 2567 2632 2301
1287 1399 1409 1486 1578 1588 1623 1580 1458 1538 1442 1460 1628 2008 2366 2152 2088 2257 2248 2663 2440 2263
1040 1194 1395 1441 1628 1671 1768 1872 1703 1873 2050 2057 1740 1694 2221 2354 2141 2221 2117 2209 2522 2277
1054 1222 1228 1504 1544 1713 1770 1946 1948 1890 1886 1958 1838 1855 2013 1787 1343 1867 1604 1605 1891 1925
993 1119 1416 1553 1570 1654 1588 1785 1749 1706 1798 1979 1840 1689 1950 1720 1511 1447 1559 1585 1636 1479
1300 1330 1221 1560 1767 1682 1607 1767 1725 1774 1734 1554 1668 1670 1630 1729 1958 1579 1283 1390 1173 1525
1443 1462 1477 1638 1764 1683 1709 1447 1635 1729 1341 1357 1519 1197 1315 1738 1821 1710 1365 1385 1372 1638
290 1037 1403 1487 1794 1857 1880 1748 1335 1308 1388 1430 448 0 0 0 630 1452 1933 1798 1433 1343
79 112 529 743 1098 1499 1823 1535 1429 981 877 512 7 0 0 0 1 86 995 1379 1323 643
40 25 38 66 210 661 538 475 629 350 218 163 0 0 0 0 16 1 153 458 709 211
70 1 3 3 101 82 115 24 77 35 16 7 4 0 0 0 121 44 8 3 1 0
1 2 4 1 0 5 5 3 4 4 3 1 4 0 0 1 63 20 3 2 0 0
2 2 1 2 2 3 3 5 6 5 3 4 0 2 0 1 5 2 1 1 1 1

GFSNIL_con_sbcape_147.txt.gz
CAPE
2019 1119 977 1262 1661 1040 913 1316 2694 1577 1483 1764 1718 1830 2097 2189 2064 3825 2417 2201 2715 2019
1651 1499 1439 1763 1783 1227 1503 1003 1125 922 1500 1692 1714 1777 1869 1820 1681 1793 2240 1877 2351 2285
1488 1327 1332 1456 1817 2348 2121 1445 1724 1620 2014 1613 1842 2003 2155 2114 2783 1906 1515 1836 2260 2106
1584 1495 1424 1290 1317 1735 1641 1608 1712 1875 2389 1726 2601 2072 2422 2588 2159 1651 1524 1534 1484 1668
1530 1596 1736 1876 1369 1624 1742 1645 1896 1681 1766 1804 1654 2581 1782 1892 1582 2055 1885 2194 1228 1248
1618 1725 1627 1695 1591 1626 1616 1686 1674 1724 1806 1755 2150 1610 2218 1977 2024 1879 1998 1678 1703 1462
1776 1771 1577 1634 1852 1491 2173 1668 2237 1774 1906 1760 1610 1518 1266 1869 1842 1547 1081 2056 1357 1792
1647 1791 2005 1900 1743 1526 2006 1981 1836 2527 1898 1815 1744 1249 1690 1563 1628 1668 1481 1042 969 1332
1957 2169 1990 1640 1139 1141 1609 1591 1915 2024 1751 1746 515 1 0 53 1719 1687 1827 1734 1425 1259
1210 1376 1143 808 868 672 440 1178 1649 1698 1411 1323 0 0 0 0 552 1268 1730 1909 2312 1437
690 850 956 407 290 590 591 463 404 599 988 585 1 0 0 0 28 1277 1293 1183 1507 1693
724 723 795 688 410 303 26 1 4 3 0 0 3 0 0 0 347 768 514 589 827 583
333 143 44 5 4 6 7 6 4 1 3 0 0 0 0 0 43 686 445 94 3 0
173 107 66 24 12 9 5 3 3 5 2 0 0 0 0 1 2 124 875 191 18 0